Simultaneous Nadir Overpasses (SNOs) Predictions

Prediction of SNOs between AQUA and GOES-15 Satellite Orbit:

Table of predicted SNOs for the next 14.0 days since TLE Epoch: 5/17/2014
Index Date Time (AQUA) AQUA Lat,Lon GOES-15 Lat,Lon Distance(km) Time Diff (sec)
1 05/18/2014 22:29:39 0.26,-133.46 -0.02,-134.77 149.51 80
2 05/19/2014 10:50:54 0.83,-138.61 0.02,-134.77 437.32 80
3 05/20/2014 22:17:25 0.85,-130.49 -0.03,-134.68 476.65 80
4 05/21/2014 10:38:40 0.23,-135.64 0.02,-134.67 110.27 80
5 05/23/2014 10:26:26 -0.40,-132.68 0.02,-134.58 216.60 80
6 05/23/2014 22:47:49 -0.74,-137.86 -0.01,-134.53 378.54 80
7 05/25/2014 22:35:35 -0.08,-134.90 -0.01,-134.44 52.14 80
8 05/27/2014 22:23:19 0.48,-131.92 -0.01,-134.33 274.08 80
9 05/28/2014 10:44:33 0.58,-137.08 0.00,-134.32 312.85 80
10 05/30/2014 10:32:18 -0.02,-134.10 -0.00,-134.21 12.92 80




NCC Satellite Simultaneous Nadir Overpasses (SNOs) Prediction Service
